Location: St. Louis
(38.6270°N, 90.1994°W)
Time: 02:04:30
(UTC-06:00)

Courier 1B Rocket - Pass Details

Date: 07 December 2021
Orbit: 920 x 1202 km, 28.2° (Epoch: 16 January)

Event Time Altitude Azimuth Distance (km) Brightness Sun altitude
Rises 20:19:27 0° 225° (SW) 3,842 8.6 -42.2°
Reaches altitude 10° 20:22:53 10° 211° (SSW) 2,835 7.6 -42.9°
Enters shadow 20:23:01 10° 210° (SSW) 2,803 7.6 -42.9°
Maximum altitude 20:27:58 22° 163° (SSE) 2,018 - -43.9°
Drops below altitude 10° 20:32:49 10° 115° (ESE) 2,697 - -44.8°
Sets 20:35:59 0° 100° (E) 3,609 - -45.4°
